Location: Bemmer
(51.5498°N, 5.6249°E)
Time: 18:05:42
(UTC+00:00)

CZ-2C R/B - Pass Details

Date: 03 March 2021
Orbit: 784 x 871 km, 98.2° (Epoch: 12 April)

Event Time Altitude Azimuth Distance (km) Brightness Sun altitude
Rises 19:39:37 0° 11° (N) 3,445 6.0 -22.0°
Reaches altitude 10° 19:42:05 10° 6° (N) 2,493 5.3 -22.4°
Maximum altitude 19:47:21 48° 294° (WNW) 1,097 3.7 -23.1°
Drops below altitude 10° 19:52:30 10° 221° (SW) 2,423 5.3 -23.9°
Sets 19:54:52 0° 216° (SW) 3,338 6.0 -24.2°
